Notices

What's New in latest Release from April 7th, 2021:

- Updated Glossary, including Speed of Maximum Gust, and Total Hourly Precipitation

- Updated national and regional climate services offices contacts and prices information

- Addition of station inventory lists for 1981-2010, 1971-2000, and 1961-1990 Normals.

If you haven't already, please take our survey and provide feedback about our website: https://eccc.sondage-survey.ca/f/LanguageSelection.aspx?s=442ca660-fcf1-47c0-95a9-59707d6fd709

Hourly Data Report for April 12, 2020

MIRAMICHI RCS
NEW BRUNSWICK
Current Station Operator: ECCC - MSC

47°00'34.000" N
65°27'54.000" W
33.00 m
8100989
71744
ACQ

Download Data

Hourly Data (April 2020)
Hourly Data Report for April 12, 2020
TIME
LST
Temp Definition
°C
Dew Point Definition
°C
Rel Hum Definition
%
Precip. Amount Definition
mm

Wind Dir Definition
10's deg

Wind Spd Definition
km/h
Visibility Definition
km
Stn Press Definition
kPa
Hmdx Definition


Wind Chill Definition


Weather Definition


00:00 -0.4 -5.8 67 LegendMM 24 12   100.11   -4 LegendNANA
01:00 -0.5 -5.5 69 LegendMM 24 13   100.21   -5 LegendNANA
02:00 -0.3 -5.3 69 LegendMM 25 13   100.30   -4 LegendNANA
03:00 -1.3 -5.6 73 LegendMM 24 13   100.42   -6 LegendNANA
04:00 -1.2 -5.7 71 LegendMM 25 12   100.53   -5 LegendNANA
05:00 -1.5 -6.2 71 LegendMM 25 12   100.68   -6 LegendNANA
06:00 -1.6 -6.2 71 LegendMM 26 12   100.81   -6 LegendNANA
07:00 -0.4 -6.1 66 LegendMM 26 15   100.95   -5 LegendNANA
08:00 1.5 -6.0 57 LegendMM 27 16   101.06     LegendNANA
09:00 3.2 -6.1 51 LegendMM 27 18   101.12     LegendNANA
10:00 4.3 -5.9 47 LegendMM 25 14   101.19     LegendNANA
11:00 4.8 -7.1 42 LegendMM 24 29   101.22     LegendNANA
12:00 6.5 -7.0 37 LegendMM 25 21   101.20     LegendNANA
13:00 7.2 -8.0 33 LegendMM 27 29   101.23     LegendNANA
14:00 8.1 -8.0 31 LegendMM 25 25   101.23     LegendNANA
15:00 8.6 -6.8 33 LegendMM 25 23   101.26     LegendNANA
16:00 9.1 -7.1 31 LegendMM 26 27   101.26     LegendNANA
17:00 9.4 -6.8 31 LegendMM 24 24   101.27     LegendNANA
18:00 8.6 -6.1 35 LegendMM 23 21   101.30     LegendNANA
19:00 6.6 -4.8 44 LegendMM 23 11   101.34     LegendNANA
20:00 5.2 -3.9 52 LegendMM 20 9   101.39     LegendNANA
21:00 4.8 -3.7 54 LegendMM 20 10   101.48     LegendNANA
22:00 6.3 -4.6 45 LegendMM 24 15   101.55     LegendNANA
23:00 5.0 -3.8 53 LegendMM 23 19   101.61     LegendNANA

Notes on Data Quality.

Legend

  • E = Estimated
  • M = Missing
  • NA = Not Available*
  • [empty] = Indicates an unobserved value
Date modified: